When you browse on this site, cookies collect data to enhance your experience and personalize the content and advertising you see.
Visit our Privacy Policy to learn more. By continuing to use the site, you agree to this use of cookies and data.
  • In Romania
  • List of Countries
  • For 7 days
  • Water Temperature
  • Satellite Maps
  • Weather Map
  • Weather Widgets
  • user-avatar
    Login

    Hourly Weather Gagarino

    Today, 26 April, Friday

    Time Temperature Precipitation Wind Pressure Humidity
    00:00 +18°C° 0 mm 2 mps 748 mmHg 48%
    01:00 +17°C° 0 mm 2 mps 748 mmHg 51%
    02:00 +17°C° 0 mm 2 mps 748 mmHg 55%
    03:00 +17°C° 0 mm 2 mps 748 mmHg 53%
    04:00 +16°C° 0.4 mm 2 mps 748 mmHg 58%
    05:00 +15°C° 0.4 mm 1 mps 748 mmHg 64%
    06:00 +14°C° 0.4 mm 1 mps 748 mmHg 70%
    07:00 +16°C° 0 mm 1 mps 748 mmHg 62%
    08:00 +17°C° 0 mm 2 mps 748 mmHg 55%
    09:00 +19°C° 0 mm 2 mps 748 mmHg 48%
    10:00 +20°C° 0 mm 2 mps 748 mmHg 44%
    11:00 +21°C° 0 mm 2 mps 748 mmHg 39%
    12:00 +22°C° 0 mm 3 mps 748 mmHg 35%
    13:00 +23°C° 0 mm 2 mps 748 mmHg 34%
    14:00 +23°C° 0 mm 2 mps 748 mmHg 32%
    15:00 +23°C° 0 mm 2 mps 748 mmHg 31%
    16:00 +23°C° 0 mm 2 mps 747 mmHg 33%
    17:00 +23°C° 0 mm 2 mps 747 mmHg 34%
    18:00 +23°C° 0 mm 2 mps 747 mmHg 36%
    19:00 +20°C° 0 mm 2 mps 747 mmHg 43%
    20:00 +18°C° 0 mm 2 mps 747 mmHg 51%
    21:00 +17°C° 0 mm 3 mps 747 mmHg 58%
    22:00 +16°C° 0 mm 3 mps 747 mmHg 61%
    23:00 +16°C° 0 mm 3 mps 747 mmHg 64%

    Tomorrow, 27 April, Saturday

    Time Temperature Precipitation Wind Pressure Humidity
    00:00 +14°C° 0 mm 3 mps 747 mmHg 67%
    01:00 +15°C° 0 mm 2 mps 746 mmHg 65%
    02:00 +15°C° 0 mm 2 mps 746 mmHg 64%
    03:00 +15°C° 0 mm 2 mps 746 mmHg 62%
    04:00 +14°C° 0 mm 2 mps 746 mmHg 62%
    05:00 +14°C° 0 mm 2 mps 745 mmHg 61%
    06:00 +14°C° 0 mm 2 mps 745 mmHg 61%
    07:00 +16°C° 0 mm 2 mps 745 mmHg 58%
    08:00 +17°C° 0 mm 3 mps 745 mmHg 55%
    09:00 +18°C° 0 mm 3 mps 745 mmHg 52%
    10:00 +19°C° 0 mm 3 mps 744 mmHg 47%
    11:00 +20°C° 0 mm 3 mps 744 mmHg 43%
    12:00 +22°C° 0 mm 3 mps 743 mmHg 38%
    13:00 +21°C° 0 mm 3 mps 743 mmHg 40%
    14:00 +21°C° 0 mm 3 mps 743 mmHg 42%
    15:00 +20°C° 0 mm 2 mps 742 mmHg 44%
    16:00 +21°C° 0 mm 2 mps 742 mmHg 43%
    17:00 +21°C° 0 mm 2 mps 741 mmHg 43%
    18:00 +21°C° 0 mm 2 mps 741 mmHg 42%
    19:00 +19°C° 0.1 mm 2 mps 741 mmHg 47%
    20:00 +18°C° 0.1 mm 3 mps 741 mmHg 53%
    21:00 +16°C° 0.1 mm 3 mps 741 mmHg 58%
    22:00 +14°C° 0.3 mm 3 mps 740 mmHg 66%
    23:00 +14°C° 0.3 mm 3 mps 740 mmHg 73%

    Day after tomorrow, 28 April, Sunday

    Time Temperature Precipitation Wind Pressure Humidity
    00:00 +13°C° 0.3 mm 3 mps 740 mmHg 81%
    01:00 +13°C° 0.3 mm 3 mps 739 mmHg 83%
    02:00 +12°C° 0.3 mm 3 mps 739 mmHg 86%
    03:00 +12°C° 0.3 mm 3 mps 739 mmHg 88%
    04:00 +12°C° 1.5 mm 3 mps 739 mmHg 90%
    05:00 +12°C° 1.5 mm 3 mps 739 mmHg 91%
    06:00 +12°C° 1.5 mm 3 mps 739 mmHg 92%
    07:00 +13°C° 0.1 mm 3 mps 739 mmHg 87%
    08:00 +13°C° 0.1 mm 4 mps 739 mmHg 82%
    09:00 +14°C° 0.1 mm 5 mps 740 mmHg 77%
    10:00 +13°C° 0 mm 5 mps 740 mmHg 77%
    11:00 +11°C° 0 mm 6 mps 740 mmHg 76%
    12:00 +10°C° 0 mm 7 mps 741 mmHg 76%
    13:00 +11°C° 0 mm 7 mps 741 mmHg 70%
    14:00 +11°C° 0 mm 7 mps 742 mmHg 64%
    15:00 +12°C° 0 mm 7 mps 742 mmHg 58%
    16:00 +11°C° 0 mm 6 mps 742 mmHg 54%
    17:00 +11°C° 0 mm 6 mps 743 mmHg 51%
    18:00 +10°C° 0 mm 6 mps 743 mmHg 47%
    19:00 +9°C° 0 mm 6 mps 744 mmHg 50%
    20:00 +7°C° 0 mm 6 mps 745 mmHg 53%
    21:00 +6°C° 0 mm 5 mps 745 mmHg 56%
    22:00 +5°C° 0 mm 5 mps 746 mmHg 58%
    23:00 +5°C° 0 mm 4 mps 746 mmHg 60%

    29 April, Monday

    Time Temperature Precipitation Wind Pressure Humidity
    00:00 +4°C° 0 mm 4 mps 747 mmHg 61%
    01:00 +3°C° 0 mm 4 mps 747 mmHg 61%
    02:00 +3°C° 0 mm 4 mps 748 mmHg 61%
    03:00 +1°C° 0 mm 4 mps 748 mmHg 61%
    04:00 +1°C° 0 mm 4 mps 748 mmHg 61%
    05:00 0°C° 0 mm 4 mps 748 mmHg 62%
    06:00 0°C° 0 mm 4 mps 749 mmHg 62%
    07:00 +1°C° 0 mm 4 mps 749 mmHg 56%
    08:00 +4°C° 0 mm 4 mps 749 mmHg 50%
    09:00 +5°C° 0 mm 5 mps 750 mmHg 44%
    10:00 +6°C° 0 mm 5 mps 750 mmHg 42%
    11:00 +7°C° 0 mm 5 mps 749 mmHg 39%
    12:00 +8°C° 0 mm 4 mps 749 mmHg 36%
    13:00 +8°C° 0 mm 4 mps 749 mmHg 35%
    14:00 +10°C° 0 mm 4 mps 749 mmHg 34%
    15:00 +10°C° 0 mm 3 mps 749 mmHg 33%
    16:00 +10°C° 0 mm 3 mps 748 mmHg 34%
    17:00 +10°C° 0 mm 3 mps 748 mmHg 35%
    18:00 +10°C° 0 mm 3 mps 748 mmHg 36%
    19:00 +8°C° 0 mm 2 mps 748 mmHg 39%
    20:00 +7°C° 0 mm 2 mps 748 mmHg 43%
    21:00 +7°C° 0 mm 1 mps 749 mmHg 46%
    22:00 +7°C° 0 mm 1 mps 749 mmHg 48%
    23:00 +6°C° 0 mm 1 mps 749 mmHg 49%

    30 April, Tuesday

    Time Temperature Precipitation Wind Pressure Humidity
    00:00 +5°C° 0 mm 1 mps 749 mmHg 51%
    01:00 +5°C° 0 mm 1 mps 748 mmHg 53%
    02:00 +4°C° 0 mm 1 mps 748 mmHg 54%
    03:00 +4°C° 0 mm 1 mps 748 mmHg 56%
    04:00 +4°C° 0 mm 1 mps 748 mmHg 57%
    05:00 +4°C° 0 mm 1 mps 748 mmHg 59%
    06:00 +4°C° 0 mm 1 mps 748 mmHg 60%
    07:00 +6°C° 0 mm 1 mps 748 mmHg 55%
    08:00 +7°C° 0 mm 1 mps 748 mmHg 50%
    09:00 +9°C° 0 mm 1 mps 747 mmHg 44%
    10:00 +9°C° 0 mm 2 mps 747 mmHg 41%
    11:00 +10°C° 0 mm 2 mps 747 mmHg 38%
    12:00 +10°C° 0 mm 2 mps 746 mmHg 35%
    13:00 +12°C° 0 mm 2 mps 746 mmHg 35%
    14:00 +12°C° 0 mm 2 mps 746 mmHg 35%
    15:00 +13°C° 0 mm 2 mps 745 mmHg 34%
    16:00 +12°C° 0 mm 2 mps 745 mmHg 35%
    17:00 +12°C° 0 mm 2 mps 744 mmHg 37%
    18:00 +12°C° 0 mm 2 mps 744 mmHg 38%
    19:00 +10°C° 0 mm 2 mps 744 mmHg 42%
    20:00 +10°C° 0 mm 2 mps 744 mmHg 45%
    21:00 +9°C° 0 mm 2 mps 744 mmHg 49%
    22:00 +9°C° 0 mm 2 mps 744 mmHg 52%
    23:00 +8°C° 0 mm 2 mps 744 mmHg 55%

    1 May, Wednesday

    Time Temperature Precipitation Wind Pressure Humidity
    00:00 +8°C° 0 mm 2 mps 744 mmHg 58%
    01:00 +7°C° 0 mm 2 mps 743 mmHg 60%
    02:00 +7°C° 0 mm 2 mps 743 mmHg 63%
    03:00 +6°C° 0 mm 2 mps 743 mmHg 65%
    04:00 +6°C° 0 mm 2 mps 743 mmHg 66%
    05:00 +6°C° 0 mm 2 mps 743 mmHg 67%
    06:00 +6°C° 0 mm 2 mps 743 mmHg 68%
    07:00 +7°C° 0 mm 3 mps 743 mmHg 63%
    08:00 +7°C° 0 mm 3 mps 742 mmHg 59%
    09:00 +7°C° 0 mm 4 mps 742 mmHg 54%
    10:00 +8°C° 0 mm 4 mps 742 mmHg 52%
    11:00 +9°C° 0 mm 5 mps 742 mmHg 49%
    12:00 +9°C° 0 mm 6 mps 742 mmHg 47%
    13:00 +9°C° 0 mm 6 mps 741 mmHg 48%
    14:00 +9°C° 0 mm 6 mps 741 mmHg 50%
    15:00 +9°C° 0 mm 6 mps 741 mmHg 51%
    16:00 +8°C° 0 mm 6 mps 741 mmHg 54%
    17:00 +8°C° 0 mm 6 mps 740 mmHg 56%
    18:00 +7°C° 0 mm 6 mps 740 mmHg 58%
    19:00 +6°C° 0 mm 5 mps 740 mmHg 63%
    20:00 +6°C° 0 mm 5 mps 739 mmHg 67%
    21:00 +5°C° 0 mm 4 mps 739 mmHg 71%
    22:00 +4°C° 0.6 mm 4 mps 738 mmHg 74%
    23:00 +3°C° 0.6 mm 5 mps 738 mmHg 78%
    Show more